Temp
15 15 16 16 16 16 16 16 16 15 16 16 16 16 16 16 15 15 15 16 15 15 15 15 14 14 15 15 15 14 14 14 14 13 13 13 13 13 13 12 12 13 14
15 16 16 16 16 16 16 16 16 16 16 16 16 16 16 16 15 14 15 15 15 15 15 14 15 15 15 15 14 14 14 13 13 13 12 12 12 13 13 12 12 13 13
15 15 17 17 16 16 16 16 15 15 16 16 15 15 15 15 14 14 14 15 14 14 14 14 14 14 15 15 14 14 14 13 13 13 12 12 11 11 11 11 11 12 13
15 15 17 17 17 17 17 16 16 15 16 15 14 15 15 14 14 14 14 14 14 14 14 13 14 14 14 14 14 13 13 13 13 12 12 12 11 10 11 11 11 11 11
14 14 17 17 17 17 17 17 16 15 15 14 14 14 15 14 14 13 13 14 13 13 13 13 13 14 14 14 13 13 13 13 13 11 11 11 11 11 12 12 12 13 13
14 14 17 17 17 16 16 16 15 15 15 14 14 15 14 14 13 14 13 13 13 13 13 13 13 14 14 13 13 13 13 13 11 11 11 11 11 12 13 13 13 13 13
14 14 16 16 16 16 16 15 15 14 14 14 14 14 14 14 14 14 13 12 13 13 13 13 13 14 13 13 13 13 13 12 11 11 11 10 10 12 13 13 12 13 13
15 14 14 15 16 16 16 15 15 15 15 14 14 14 13 13 13 13 13 13 13 13 13 13 13 13 13 12 13 13 12 11 11 11 10 10 10 11 12 12 12 12 13
14 14 14 15 15 16 15 15 15 15 15 14 14 14 13 12 12 12 13 13 13 13 12 12 12 12 12 12 13 12 12 12 11 10 10 9 10 10 10 10 11 12 12
15 15 14 14 15 15 15 15 15 15 14 14 13 13 12 12 12 12 12 13 13 12 12 12 12 12 12 12 12 12 12 11 11 11 9 9 9 10 9 10 10 11 12
15 15 14 14 13 14 14 14 14 14 14 14 13 12 12 11 11 12 12 12 12 12 12 11 11 11 11 12 12 12 11 11 11 10 9 9 9 9 9 9 9 10 11
15 15 15 14 14 14 14 13 13 14 13 12 12 12 12 12 11 11 11 11 11 11 11 11 11 11 11 11 12 11 11 10 10 10 9 8 9 9 9 9 8 10 10
15 15 15 14 14 14 14 14 13 12 11 11 11 11 11 11 11 11 11 11 11 11 10 10 10 10 10 10 10 10 10 10 10 9 10 10 9 9 9 8 9 9 9
14 15 15 14 14 14 14 14 14 13 12 13 13 11 11 11 11 11 11 10 10 11 10 10 10 10 10 10 10 10 10 10 10 10 9 9 9 9 9 9 8 8 9
15 14 14 15 15 14 14 14 14 13 13 13 13 13 11 11 11 11 11 10 11 10 10 10 10 10 10 10 10 9 10 9 9 9 8 9 9 9 9 9 8 8 8
14 15 14 14 14 15 14 14 14 13 13 13 13 13 13 11 11 10 10 10 10 10 10 10 10 10 10 10 9 9 9 9 9 9 8 9 9 9 8 8 7 8 8
14 14 14 14 14 14 14 14 14 14 13 13 13 13 13 13 12 12 10 10 10 10 10 10 10 10 10 9 9 9 9 9 9 8 8 8 8 8 8 8 8 7 8
14 14 14 14 14 14 14 14 14 14 13 13 13 13 13 13 13 13 11 10 11 10 10 10 10 10 9 9 9 9 9 9 8 8 8 8 8 8 8 8 8 7 8
14 13 13 14 14 14 14 14 14 14 13 13 13 13 13 13 13 13 12 10 11 11 10 10 10 10 9 9 9 9 9 9 9 9 9 8 8 8 7 8 8 8 8
13 13 13 13 13 14 14 14 14 14 14 13 13 13 12 12 12 13 13 12 12 11 11 11 10 10 10 9 9 9 10 9 9 9 9 8 8 8 8 9 8 8 8
13 13 13 13 13 14 14 14 13 14 13 13 12 12 12 12 12 12 13 13 12 12 12 10 10 11 10 10 10 9 10 10 10 10 10 9 9 9 9 9 9 9 8
12 13 14 14 13 14 14 14 13 13 13 13 13 12 12 12 12 12 13 13 13 12 12 11 12 11 11 11 10 10 10 10 9 10 10 10 10 10 10 10 9 9 9
12 12 13 13 14 14 14 14 13 13 13 13 13 12 12 12 12 12 12 12 13 13 13 12 12 12 12 11 11 11 11 12 11 11 11 11 11 11 10 10 10 10 9
11 12 13 14 14 13 14 14 14 14 13 14 13 13 13 13 12 12 12 12 13 12 13 13 13 12 12 11 11 11 12 12 12 12 11 11 11 11 11 10 10 10 10
10 12 12 12 13 13 13 13 13 13 13 13 13 13 13 12 13 13 12 13 13 13 13 13 12 12 12 12 12 12 12 12 12 11 12 10 11 11 11 11 10 10 10
9 11 12 12 12 12 12 13 13 13 13 13 13 12 12 12 13 12 12 12 12 13 12 12 12 12 12 12 12 11 11 11 11 11 11 11 11 11 11 11 11 11 10
Height
1520 1523 1527 1531 1535 1538 1541 1544 1546 1548 1549 1551 1552 1553 1555 1556 1557 1559 1560 1561 1562 1562 1562 1562 1562 1563 1564 1564 1565 1566 1565 1565 1565 1565 1565 1565 1565 1564 1564 1562 1563 1563 1562
1518 1522 1527 1531 1535 1538 1541 1544 1547 1549 1550 1551 1553 1554 1556 1558 1560 1562 1562 1563 1564 1565 1565 1565 1565 1566 1567 1567 1568 1569 1569 1568 1568 1568 1568 1568 1566 1566 1566 1566 1566 1565 1566
1517 1522 1527 1531 1535 1538 1542 1545 1548 1550 1551 1553 1554 1556 1558 1560 1562 1564 1565 1565 1566 1567 1567 1567 1568 1569 1570 1570 1571 1572 1572 1572 1572 1572 1573 1572 1570 1568 1569 1570 1569 1569 1569
1518 1521 1526 1531 1535 1539 1542 1546 1548 1551 1552 1554 1556 1557 1559 1562 1564 1565 1567 1568 1568 1568 1569 1570 1571 1572 1573 1574 1574 1575 1576 1575 1575 1575 1576 1576 1574 1573 1573 1573 1572 1573 1573
1519 1523 1526 1531 1535 1539 1543 1546 1549 1552 1553 1555 1557 1558 1560 1563 1565 1566 1567 1569 1569 1570 1572 1573 1574 1575 1576 1577 1577 1578 1578 1578 1578 1578 1578 1578 1579 1577 1577 1578 1577 1577 1576
1521 1525 1527 1532 1537 1540 1543 1546 1550 1553 1554 1557 1559 1560 1562 1563 1565 1567 1568 1569 1572 1573 1574 1575 1577 1578 1579 1579 1579 1580 1581 1581 1581 1581 1581 1581 1582 1581 1581 1581 1581 1580 1580
1520 1525 1529 1533 1538 1541 1544 1548 1551 1554 1556 1559 1560 1562 1564 1565 1567 1567 1569 1572 1574 1575 1577 1577 1579 1581 1581 1581 1582 1583 1583 1584 1585 1585 1585 1584 1584 1584 1584 1584 1584 1583 1583
1520 1524 1530 1535 1539 1542 1546 1549 1552 1555 1557 1560 1562 1564 1566 1567 1569 1570 1572 1574 1576 1578 1579 1581 1581 1583 1583 1584 1585 1585 1586 1586 1587 1587 1586 1586 1586 1587 1587 1586 1586 1586 1586
1521 1526 1531 1535 1540 1544 1547 1550 1553 1556 1559 1560 1563 1566 1568 1570 1572 1574 1576 1578 1579 1581 1582 1583 1584 1585 1586 1587 1588 1588 1589 1589 1590 1590 1589 1589 1589 1589 1589 1589 1589 1589 1589
1521 1526 1531 1535 1540 1544 1548 1552 1554 1557 1560 1561 1564 1568 1570 1572 1574 1577 1578 1581 1582 1584 1585 1586 1586 1587 1588 1590 1590 1591 1592 1593 1593 1594 1592 1592 1592 1592 1591 1590 1592 1592 1592
1522 1525 1530 1535 1540 1544 1548 1552 1555 1558 1560 1562 1566 1569 1572 1574 1577 1580 1581 1583 1585 1586 1587 1588 1589 1589 1590 1592 1593 1594 1595 1596 1596 1596 1595 1595 1594 1593 1593 1592 1593 1594 1595
1518 1523 1528 1534 1539 1543 1548 1551 1555 1558 1561 1563 1566 1570 1574 1577 1579 1581 1583 1585 1587 1588 1589 1590 1591 1592 1594 1595 1595 1596 1598 1599 1599 1599 1597 1597 1596 1596 1595 1595 1595 1597 1597
1513 1521 1526 1532 1537 1543 1546 1550 1555 1559 1562 1564 1567 1571 1574 1576 1578 1582 1584 1587 1588 1590 1591 1592 1594 1596 1597 1597 1598 1598 1599 1600 1602 1600 1600 1600 1600 1598 1598 1597 1597 1598 1599
1512 1518 1524 1530 1535 1541 1545 1550 1554 1558 1561 1564 1567 1570 1573 1576 1579 1582 1585 1587 1590 1592 1593 1595 1597 1597 1598 1599 1599 1600 1601 1602 1603 1604 1603 1603 1603 1602 1602 1601 1600 1600 1600
1510 1516 1522 1528 1533 1538 1543 1548 1553 1557 1561 1564 1567 1569 1572 1575 1579 1582 1585 1587 1590 1592 1594 1596 1598 1599 1600 1600 1601 1601 1602 1603 1604 1604 1605 1605 1605 1605 1605 1605 1604 1602 1602
1509 1514 1520 1526 1531 1536 1541 1546 1552 1556 1560 1564 1567 1569 1572 1575 1578 1580 1584 1587 1589 1593 1595 1597 1599 1600 1601 1602 1602 1602 1603 1604 1606 1607 1606 1606 1606 1607 1607 1606 1606 1605 1604
1506 1512 1517 1524 1529 1535 1540 1546 1551 1556 1560 1564 1567 1569 1572 1574 1577 1579 1584 1586 1588 1592 1595 1597 1599 1601 1602 1603 1604 1605 1606 1606 1607 1606 1608 1608 1609 1609 1608 1608 1607 1606 1606
1503 1509 1515 1521 1528 1534 1539 1544 1549 1555 1560 1563 1566 1569 1572 1574 1577 1579 1582 1586 1587 1591 1594 1597 1600 1602 1604 1605 1606 1606 1607 1608 1608 1608 1609 1610 1609 1610 1609 1609 1608 1608 1608
1499 1506 1511 1519 1525 1531 1538 1543 1548 1554 1558 1562 1566 1569 1571 1574 1576 1579 1582 1585 1587 1590 1594 1597 1600 1603 1604 1606 1607 1608 1609 1610 1611 1611 1612 1611 1610 1610 1609 1609 1609 1609 1608
1497 1504 1510 1516 1523 1529 1536 1542 1547 1552 1557 1561 1565 1568 1571 1574 1576 1578 1581 1584 1587 1590 1593 1597 1599 1602 1605 1606 1607 1609 1609 1610 1611 1612 1613 1613 1612 1611 1610 1610 1610 1609 1608
1495 1501 1508 1513 1520 1526 1531 1537 1543 1546 1552 1558 1563 1567 1570 1573 1576 1578 1581 1583 1586 1589 1592 1596 1599 1601 1604 1606 1607 1609 1610 1611 1611 1612 1613 1613 1612 1612 1612 1611 1611 1610 1609
1491 1498 1504 1510 1516 1522 1528 1534 1540 1545 1550 1556 1561 1565 1569 1572 1574 1577 1580 1583 1585 1588 1591 1594 1597 1599 1602 1605 1609 1610 1612 1613 1612 1612 1613 1613 1613 1613 1612 1612 1612 1611 1610
1488 1493 1500 1506 1513 1520 1526 1531 1537 1542 1548 1552 1557 1561 1564 1569 1573 1576 1579 1582 1585 1588 1590 1593 1596 1599 1601 1603 1606 1609 1610 1612 1613 1613 1613 1613 1613 1613 1613 1612 1612 1611 1611
1484 1490 1496 1503 1511 1517 1522 1528 1533 1537 1542 1546 1551 1558 1562 1567 1570 1575 1578 1581 1585 1587 1590 1592 1595 1597 1599 1601 1604 1606 1608 1610 1612 1613 1613 1613 1613 1613 1612 1612 1611 1610 1610
1482 1488 1494 1501 1507 1514 1520 1525 1531 1536 1541 1544 1550 1555 1559 1564 1567 1571 1575 1578 1582 1585 1588 1591 1594 1596 1598 1600 1602 1604 1606 1608 1609 1611 1612 1612 1612 1612 1612 1612 1611 1610 1609
1480 1486 1492 1498 1504 1510 1516 1522 1527 1532 1537 1542 1548 1553 1557 1562 1565 1568 1572 1576 1579 1582 1586 1589 1592 1594 1596 1598 1600 1602 1604 1606 1607 1608 1609 1610 1610 1610 1610 1610 1610 1609 1608
Wind_Speed
25 27 27 26 25 23 23 21 20 16 16 14 12 11 11 11 15 16 15 18 18 21 25 26 24 20 20 21 22 23 23 23 21 21 19 19 19 16 19 26 25 19 17
30 30 28 28 26 24 23 21 18 16 14 12 11 12 12 14 17 19 18 20 18 18 20 18 21 19 18 18 22 21 21 20 18 18 17 16 16 17 17 24 24 25 21
30 30 29 27 26 25 22 19 16 14 13 11 11 14 18 18 21 20 18 19 16 16 18 17 18 19 18 20 20 19 19 16 14 15 21 17 18 17 21 20 22 22 22
30 30 29 27 25 23 22 19 17 16 14 14 13 15 20 21 18 18 20 17 14 14 15 17 18 19 20 20 19 19 15 12 11 16 18 18 19 19 21 21 21 21 17
30 30 30 29 26 23 21 20 20 20 18 17 13 14 20 23 21 17 19 20 16 14 15 17 18 18 18 18 16 16 12 10 13 17 18 19 21 28 33 30 29 27 26
30 28 31 28 25 23 22 22 22 22 21 16 12 16 21 21 21 15 13 22 15 15 16 17 17 18 18 18 15 11 12 12 17 18 18 20 19 24 20 22 23 22 20
32 30 30 27 24 22 22 24 25 24 20 16 16 16 15 18 15 12 19 23 18 20 20 19 21 21 18 18 15 13 13 15 17 17 17 15 19 23 23 19 21 18 19
33 32 29 26 24 22 23 24 24 22 18 17 21 17 16 17 21 25 27 24 23 22 21 20 22 22 20 17 14 10 10 15 16 17 15 19 17 18 17 17 16 16 17
30 32 29 28 25 23 23 23 22 20 18 20 22 22 18 17 21 25 24 22 21 22 20 17 19 17 18 16 13 11 11 13 17 15 15 15 17 15 14 14 15 17 17
33 32 30 29 28 26 25 24 23 21 20 21 23 23 21 18 19 25 23 21 20 19 17 14 15 17 16 14 14 10 8 14 15 13 14 14 14 13 11 13 16 18 17
35 33 30 29 28 27 27 26 24 21 18 19 23 23 22 18 17 26 22 21 19 17 16 12 12 15 13 12 11 9 7 11 13 11 13 12 13 13 12 10 18 17 17
39 36 34 32 30 30 28 28 26 23 19 19 22 23 18 18 15 19 24 22 20 17 15 11 19 16 14 10 8 5 8 9 12 11 10 10 11 14 14 14 19 16 14
44 38 36 35 33 31 30 29 26 22 19 19 21 20 18 17 17 18 22 22 19 14 13 15 14 12 12 11 11 10 10 11 11 10 14 13 14 16 15 14 18 16 14
43 41 38 37 34 32 32 30 28 24 21 20 21 19 19 17 18 16 17 17 15 13 15 14 12 12 12 12 12 12 12 11 11 10 12 9 10 11 15 13 11 10 12
41 42 40 39 37 35 34 32 29 26 23 21 19 18 18 17 17 17 16 16 16 15 13 13 12 12 11 11 12 12 13 10 12 10 12 13 13 13 13 12 12 13 9
42 41 40 41 38 37 35 32 28 27 24 21 18 17 18 17 17 17 17 15 17 16 14 13 12 12 11 10 11 12 11 11 11 10 10 10 12 9 7 9 9 10 8
44 43 43 40 40 37 35 31 28 27 26 22 19 16 17 17 17 18 16 16 17 17 16 14 13 11 10 10 10 11 11 10 10 9 10 9 8 7 8 9 9 10 12
39 44 41 43 39 37 35 32 29 27 27 24 21 19 18 17 17 17 17 16 19 20 18 16 13 11 10 10 9 9 10 10 9 8 8 6 6 3 4 4 6 9 7
45 46 45 42 40 38 35 32 28 26 27 26 24 21 19 17 17 16 18 16 18 18 19 16 14 11 10 10 9 7 8 8 8 8 7 7 4 3 3 2 7 5 2
45 46 43 41 39 36 34 30 28 26 26 27 26 24 22 19 16 17 17 18 18 17 19 18 14 13 10 10 9 7 6 6 6 4 4 5 6 10 7 6 5 5 6
44 44 43 40 39 37 35 33 30 30 30 28 28 25 24 21 20 17 16 18 18 18 19 18 15 14 15 11 9 6 2 1 3 3 4 3 5 7 9 10 8 6 7
43 41 42 41 40 38 36 34 32 29 28 27 28 27 25 23 23 19 17 17 17 17 20 20 17 17 15 14 8 6 3 2 4 3 4 5 6 7 7 8 9 9 7
40 42 42 42 39 38 35 35 33 31 30 29 30 31 30 27 22 21 19 17 18 18 18 18 17 13 13 16 13 7 3 2 2 2 2 5 7 8 9 9 8 8 8
38 40 41 41 40 39 38 36 35 35 36 35 33 30 29 29 27 23 21 19 17 17 17 16 17 17 15 13 15 13 8 4 2 1 2 6 5 7 9 9 10 10 9
32 35 39 41 39 37 36 33 31 29 30 29 29 31 31 29 29 27 25 21 20 19 17 17 16 17 15 16 14 13 12 11 10 6 6 4 6 9 10 12 10 9 10
27 32 35 38 39 37 35 32 30 28 30 28 26 26 26 25 26 25 25 24 24 23 23 21 20 19 18 20 18 16 14 12 10 9 7 9 10 10 10 12 14 12 11
Wind_Direction
163 164 165 168 164 157 156 157 154 154 150 154 156 149 136 129 131 129 130 120 118 111 111 114 116 109 97 91 100 101 102 105 104 98 93 93 92 100 98 87 76 77 80
158 163 165 169 166 160 159 158 165 162 154 161 152 146 133 130 127 116 118 135 123 126 116 124 117 106 95 90 109 106 106 103 98 89 73 70 72 88 101 93 88 87 70
157 161 165 168 167 167 168 170 165 158 152 146 147 142 131 123 129 130 130 137 134 133 132 129 119 105 96 100 109 108 106 96 90 88 75 72 66 72 87 80 82 89 83
156 159 162 165 165 166 168 168 164 156 146 140 145 136 137 131 134 137 141 136 147 149 149 132 122 109 103 111 108 102 104 95 82 78 75 73 72 72 82 76 69 75 80
156 157 162 162 161 161 160 158 154 147 145 151 139 139 145 142 137 141 153 148 142 145 140 131 121 114 112 116 111 113 104 83 72 74 78 80 82 72 69 70 74 74 70
157 158 162 162 161 161 159 154 151 151 155 157 143 132 138 152 158 157 139 153 142 138 132 132 129 123 119 116 114 103 80 67 76 79 80 85 85 74 64 74 75 70 73
157 161 163 163 163 163 161 157 159 160 165 155 144 134 125 139 144 146 131 132 133 125 119 122 126 126 129 123 110 97 82 74 79 82 81 86 92 92 83 88 83 90 82
158 163 162 165 165 164 162 162 163 165 164 154 146 140 132 129 120 121 120 121 122 119 116 113 127 130 128 124 118 105 85 73 74 82 83 81 83 100 95 95 88 91 87
160 162 164 165 164 162 161 162 163 162 161 156 152 148 140 130 126 128 124 122 123 126 121 121 128 133 122 125 125 106 80 67 76 84 82 87 89 103 100 100 91 95 89
163 168 165 164 163 160 158 157 153 150 150 153 154 150 144 138 128 135 131 130 133 131 128 128 131 139 132 132 133 108 76 74 74 81 80 83 91 107 99 100 94 97 87
168 170 167 166 162 162 157 156 153 149 146 151 155 153 147 140 130 135 138 137 135 139 131 136 141 137 134 137 118 121 87 77 74 89 83 80 77 103 97 92 107 98 95
173 173 172 170 166 164 162 158 157 151 146 146 155 153 146 143 139 148 146 142 144 144 143 133 114 111 103 108 107 112 91 85 85 83 82 91 88 82 84 79 110 101 98
174 174 176 172 169 169 167 164 162 155 149 148 153 156 152 153 149 143 153 151 145 142 141 134 124 112 104 97 92 94 99 93 93 92 86 77 59 69 73 64 113 102 97
178 178 179 177 173 174 173 169 167 164 155 151 153 158 157 152 153 150 155 160 153 154 136 131 129 120 108 96 87 89 95 94 93 105 91 95 80 94 79 68 60 93 105
177 182 182 181 177 179 176 176 174 172 162 158 154 157 163 158 155 158 152 159 158 152 143 140 133 127 116 100 90 88 96 100 101 103 96 84 83 71 78 77 64 57 99
181 183 184 186 184 183 183 181 178 176 172 165 158 156 160 160 161 157 157 157 157 157 145 140 135 133 122 108 94 84 97 101 101 103 90 102 91 80 75 55 53 76 63
186 187 186 185 188 187 187 184 182 181 177 173 165 158 158 161 163 161 156 157 158 163 156 150 139 132 127 119 103 90 91 93 102 113 107 114 95 83 88 74 49 53 58
184 188 187 189 188 190 188 189 186 185 184 180 174 164 159 156 160 162 163 162 162 166 170 163 153 143 133 128 119 100 89 88 99 103 94 96 120 90 80 85 39 64 62
191 188 192 189 188 189 189 190 188 186 190 186 181 174 164 159 158 162 169 171 170 171 174 169 166 159 147 141 135 115 102 96 88 91 87 84 68 83 80 79 48 93 49
194 194 189 190 186 189 190 190 189 189 192 192 188 183 172 169 164 163 168 176 177 177 177 175 174 171 165 159 150 132 100 105 96 96 81 75 54 51 42 38 29 6 8
196 192 191 189 189 189 190 190 191 192 193 194 193 188 182 182 179 171 167 174 179 178 175 173 173 173 176 172 161 158 148 49 21 23 38 45 31 38 38 36 26 24 359
198 192 190 191 190 191 193 193 193 192 195 196 195 191 190 190 186 182 175 177 181 185 178 179 182 177 183 183 173 166 170 252 268 302 346 11 9 7 14 21 16 18 6
189 187 188 194 190 191 193 193 192 190 192 193 196 196 193 193 192 193 188 186 186 187 193 193 193 200 202 194 189 176 156 162 140 48 15 23 5 1 351 347 349 353 353
185 186 191 192 190 192 196 198 197 194 194 196 196 196 196 194 197 199 201 197 195 199 196 206 208 209 214 216 210 212 211 218 188 204 323 335 345 358 357 347 336 332 326
173 176 184 190 190 192 197 203 204 203 203 204 201 198 202 200 197 200 204 203 208 209 203 216 214 222 225 231 225 226 233 246 254 248 279 282 301 314 324 324 333 340 333
159 171 179 187 190 193 194 196 201 204 204 199 197 195 198 205 208 209 210 212 211 214 216 215 220 229 226 225 232 235 242 256 257 256 253 274 290 293 297 306 317 319 323